TimeCDT,TemperatureF,Dew PointF,Humidity,Sea Level PressureIn,VisibilityMPH,Wind Direction,Wind SpeedMPH,Gust SpeedMPH,PrecipitationIn,Events,Conditions,WindDirDegrees,DateUTC
12:15 AM,78.1,71.6,80,29.94,10.0,South,9.2,-,N/A,,Unknown,170,2013-09-20 05:15:00
12:35 AM,77.9,71.6,81,29.93,10.0,South,9.2,-,N/A,,Unknown,170,2013-09-20 05:35:00
12:55 AM,77.9,71.2,80,29.93,10.0,South,8.1,-,N/A,,Unknown,180,2013-09-20 05:55:00
1:15 AM,77.4,71.1,81,29.94,10.0,South,6.9,-,N/A,,Unknown,180,2013-09-20 06:15:00
1:35 AM,77.0,71.1,82,29.93,10.0,South,6.9,-,N/A,,Unknown,170,2013-09-20 06:35:00
1:55 AM,76.6,70.9,82,29.92,10.0,South,5.8,-,N/A,,Unknown,170,2013-09-20 06:55:00
2:15 AM,76.5,70.7,82,29.92,10.0,SSE,8.1,-,N/A,,Unknown,160,2013-09-20 07:15:00
2:35 AM,76.1,70.5,83,29.91,10.0,SSE,8.1,-,N/A,,Unknown,160,2013-09-20 07:35:00
2:55 AM,76.5,70.2,81,29.90,10.0,SSE,8.1,-,N/A,,Unknown,160,2013-09-20 07:55:00
3:15 AM,77.0,69.8,78,29.90,10.0,SSE,9.2,-,N/A,,Unknown,160,2013-09-20 08:15:00
3:35 AM,77.0,69.4,77,29.90,10.0,South,10.4,-,N/A,,Unknown,170,2013-09-20 08:35:00
3:55 AM,77.0,69.3,77,29.90,10.0,South,8.1,-,N/A,,Unknown,170,2013-09-20 08:55:00
4:15 AM,76.8,69.4,78,29.90,10.0,Calm,Calm,-,N/A,,Unknown,0,2013-09-20 09:15:00
4:35 AM,76.3,69.8,80,29.91,10.0,Calm,Calm,-,N/A,,Unknown,0,2013-09-20 09:35:00
4:55 AM,76.1,69.8,81,29.91,10.0,WSW,4.6,-,N/A,,Unknown,250,2013-09-20 09:55:00
5:15 AM,75.7,69.6,81,29.91,10.0,SSW,4.6,-,N/A,,Unknown,200,2013-09-20 10:15:00
5:35 AM,74.8,70.0,85,29.90,4.0,SSW,4.6,-,0.04,Rain,Rain,200,2013-09-20 10:35:00
5:55 AM,73.8,70.2,88,29.90,7.0,South,4.6,-,0.04,,Unknown,170,2013-09-20 10:55:00
6:15 AM,73.9,70.7,90,29.91,7.0,SSW,4.6,-,N/A,,Unknown,200,2013-09-20 11:15:00
6:35 AM,73.8,70.3,89,29.90,7.0,SSW,3.5,-,N/A,,Unknown,210,2013-09-20 11:35:00
6:55 AM,74.3,70.7,88,29.91,7.0,SSW,4.6,-,N/A,,Unknown,210,2013-09-20 11:55:00
7:15 AM,74.5,71.1,89,29.91,5.0,SW,4.6,-,0.01,Rain,Light Rain,220,2013-09-20 12:15:00
7:35 AM,74.3,71.2,90,29.92,5.0,SW,3.5,-,0.01,,Mist,230,2013-09-20 12:35:00
7:55 AM,74.3,71.1,90,29.92,5.0,SW,5.8,-,0.01,,Mist,230,2013-09-20 12:55:00
8:15 AM,74.3,70.9,89,29.92,5.0,WSW,4.6,-,N/A,Rain,Light Rain,240,2013-09-20 13:15:00
8:35 AM,73.8,70.2,88,29.92,5.0,West,5.8,-,0.01,Rain,Rain,270,2013-09-20 13:35:00
8:55 AM,73.4,70.2,90,29.92,5.0,Calm,Calm,-,0.04,Rain,Light Rain,0,2013-09-20 13:55:00
9:15 AM,73.6,70.2,89,29.93,10.0,SW,3.5,-,0.01,Rain,Light Rain,220,2013-09-20 14:15:00
9:35 AM,73.8,70.3,89,29.93,7.0,WSW,4.6,-,0.01,Rain,Light Rain,240,2013-09-20 14:35:00
9:55 AM,74.3,70.5,88,29.94,10.0,WSW,5.8,-,0.01,,Unknown,250,2013-09-20 14:55:00
10:15 AM,74.3,70.3,87,29.94,10.0,West,6.9,-,N/A,,Unknown,270,2013-09-20 15:15:00
10:35 AM,74.3,69.8,86,29.94,10.0,West,4.6,-,N/A,,Unknown,270,2013-09-20 15:35:00
10:55 AM,73.9,70.0,87,29.94,10.0,West,3.5,-,N/A,,Unknown,260,2013-09-20 15:55:00
11:15 AM,74.3,70.0,86,29.94,10.0,West,3.5,-,N/A,,Unknown,260,2013-09-20 16:15:00
11:35 AM,74.7,70.2,86,29.94,10.0,SW,3.5,-,N/A,,Unknown,220,2013-09-20 16:35:00
11:55 AM,74.7,70.0,85,29.94,10.0,SW,4.6,-,N/A,Rain,Light Rain,230,2013-09-20 16:55:00
12:15 PM,74.5,70.0,86,29.94,10.0,SW,4.6,-,N/A,,Drizzle,230,2013-09-20 17:15:00
12:35 PM,74.7,70.5,87,29.93,7.0,SW,4.6,-,N/A,Rain,Light Rain,220,2013-09-20 17:35:00
12:55 PM,74.7,70.7,87,29.92,7.0,SSW,3.5,-,N/A,Rain,Light Rain,200,2013-09-20 17:55:00
1:15 PM,74.7,70.2,86,29.91,10.0,SSW,3.5,-,0.01,Rain,Light Rain,200,2013-09-20 18:15:00
1:35 PM,74.8,70.7,87,29.91,10.0,SW,3.5,-,0.01,Rain,Light Rain,230,2013-09-20 18:35:00
1:55 PM,74.7,70.3,86,29.90,10.0,WSW,3.5,-,0.02,Rain,Light Rain,240,2013-09-20 18:55:00
2:15 PM,74.7,70.7,87,29.90,10.0,West,3.5,-,N/A,Rain,Light Rain,260,2013-09-20 19:15:00
2:35 PM,74.5,70.7,88,29.89,10.0,Calm,Calm,-,N/A,Rain,Rain,0,2013-09-20 19:35:00
2:55 PM,74.3,70.7,88,29.88,7.0,WSW,3.5,-,0.01,Rain,Light Rain,240,2013-09-20 19:55:00
3:15 PM,73.9,70.3,88,29.88,7.0,SW,3.5,-,0.01,Rain,Light Rain,230,2013-09-20 20:15:00
3:35 PM,73.4,69.3,87,29.88,7.0,SW,3.5,-,0.02,Rain,Light Rain,230,2013-09-20 20:35:00
3:55 PM,73.4,70.0,89,29.88,10.0,Calm,Calm,-,0.02,Rain,Rain,0,2013-09-20 20:55:00
4:15 PM,73.4,69.8,88,29.87,10.0,SW,3.5,-,N/A,Rain,Rain,220,2013-09-20 21:15:00
4:35 PM,73.0,69.3,88,29.87,10.0,SW,3.5,-,0.01,,Unknown,220,2013-09-20 21:35:00
4:55 PM,73.4,69.8,88,29.87,10.0,Calm,Calm,-,0.01,,Unknown,0,2013-09-20 21:55:00
5:15 PM,73.0,69.8,90,29.87,10.0,Calm,Calm,-,N/A,,Unknown,0,2013-09-20 22:15:00
5:35 PM,73.0,70.0,90,29.87,10.0,West,3.5,-,N/A,,Unknown,270,2013-09-20 22:35:00
5:55 PM,72.7,69.1,88,29.87,10.0,West,4.6,-,N/A,,Unknown,280,2013-09-20 22:55:00
6:15 PM,72.3,69.1,89,29.87,10.0,West,4.6,-,N/A,,Unknown,280,2013-09-20 23:15:00
6:35 PM,72.0,68.5,89,29.87,10.0,West,5.8,-,N/A,,Unknown,280,2013-09-20 23:35:00
6:55 PM,71.6,68.0,88,29.87,10.0,WNW,6.9,-,N/A,,Unknown,300,2013-09-20 23:55:00
7:15 PM,70.9,67.6,89,29.87,10.0,WNW,3.5,-,N/A,Rain,Rain,300,2013-09-21 00:15:00
7:35 PM,70.7,67.5,89,29.87,10.0,Calm,Calm,-,N/A,,Unknown,0,2013-09-21 00:35:00
7:55 PM,70.3,67.3,90,29.88,10.0,WNW,4.6,-,N/A,,Unknown,290,2013-09-21 00:55:00
8:15 PM,70.3,67.3,90,29.88,10.0,WNW,3.5,-,N/A,,Unknown,290,2013-09-21 01:15:00
8:35 PM,70.2,67.1,90,29.89,10.0,NW,5.8,-,N/A,,Unknown,310,2013-09-21 01:35:00
8:55 PM,69.8,65.3,86,29.90,10.0,NW,10.4,-,N/A,,Unknown,310,2013-09-21 01:55:00
9:15 PM,68.9,64.4,86,29.89,10.0,NW,8.1,-,N/A,,Unknown,320,2013-09-21 02:15:00
9:35 PM,68.4,64.0,86,29.89,10.0,NW,5.8,-,N/A,,Unknown,320,2013-09-21 02:35:00
9:55 PM,68.2,63.5,85,29.90,10.0,NW,5.8,-,N/A,,Unknown,320,2013-09-21 02:55:00
10:15 PM,67.6,63.0,85,29.89,10.0,NW,3.5,-,N/A,,Unknown,320,2013-09-21 03:15:00
10:35 PM,67.1,62.8,86,29.89,10.0,NW,4.6,-,N/A,,Unknown,320,2013-09-21 03:35:00
10:55 PM,66.6,62.6,87,29.89,10.0,NW,4.6,-,N/A,,Unknown,310,2013-09-21 03:55:00
11:15 PM,66.4,61.7,85,29.89,10.0,NW,6.9,-,N/A,,Unknown,320,2013-09-21 04:15:00
11:35 PM,66.2,58.8,77,29.90,10.0,NNW,9.2,16.1,N/A,,Unknown,330,2013-09-21 04:35:00
11:55 PM,65.3,57.6,76,29.90,10.0,NNW,8.1,-,N/A,,Unknown,330,2013-09-21 04:55:00